Weather in Kolodruby

Ukraine / Lviv District     49°30′18″N   23°47′47″E
temp.,
°C
wind,
m/s
gust,
m/s
humid.,
%
clouds,
%
prec.,
mm/h
press.,
hPa
HPBL,
m
17 may, mon
mon1700:00+11wsw2390100 0.3 100867
03:00+9wnw229187 0.3 100811
06:00+8w23912 0.0 100830
09:00+13ese11790 0.0 1007298
12:00+17sw11622 0.0 10061190
15:00+19nne22550 0.0 10041277
18:00+19nne12552 0.0 1003998
21:00+14e33772 0.0 100321
18 may, tue
tue1800:00+11ese228959 0.0 100313
03:00+9nw5997100 0.1 1004233
06:00+10wnw5896100 0.1 1004433
09:00+11wnw6995100 0.1 1005639
12:00+11nw71190100 0.1 1006765
15:00+11wnw91289100 0.2 1007867
18:00+11wnw81386100 0.0 1008844
21:00+11wnw71388100 0.1 1009785
19 may, wed
wed1900:00+10wnw61387100 0.0 1010581
03:00+10w7148389 0.0 1011617
06:00+9wnw61489100 0.0 1011498
09:00+12wnw8118053 0.0 1012777
12:00+14wnw896894 0.1 10121379
15:00+16nw68608 0.1 10111761
18:00+16nw45665 0.0 10111215
21:00+11wnw228499 0.3 101113
20 may, thu
thu2000:00+10wnw4797100 1.4 1012229
03:00+9wnw2697100 3.4 1012276
06:00+9w4896100 0.3 1012469
09:00+9wnw71189100 0.5 1013675
12:00+8wnw6991100 0.2 1014535
15:00+9wnw5989100 0.2 1015539
18:00+10nnw688157 0.1 1014786
21:00+8wnw3787100 0.1 1016351
21 may, fri
fri2100:00+7w2393100 0.0 101781
03:00+7wnw3590100 0.0 1017155
06:00+6wnw3795100 0.0 1017186
09:00+10nw578574 0.0 1017510
12:00+12nw567797 0.5 10181068
15:00+14nw556763 0.9 10171265
18:00+14nw55694 0.2 10171031
21:00+9nw338912 0.2 101844